Погода в Сантана-ду-Ливраменту

Бразилия     30°51′52″S   55°31′13″W
темп.,
°C
ветер,
м/с
пор.,
м/с
влажн.,
%
обл.,
%
осадки,
мм/ч
давл.,
гПа
погр.,
м
27 февраля, сб
сб2700:00+19в513830 0.0 1016492
03:00+16вюв49910 0.0 1016241
06:00+15вюв48960 0.0 1017208
09:00+20в69795 0.0 1019515
12:00+28всв68567 0.0 1018978
15:00+30в664813 0.0 10161840
18:00+28в575644 0.0 10141206
21:00+23в7156927 0.0 1017599
28 февраля, вс
вс2800:00+19в614770 0.0 1018674
03:00+17в413910 0.0 1016563
06:00+16в412940 0.0 1017367
09:00+21всв610720 0.0 1017594
12:00+28всв67495 0.0 10161181
15:00+30в66442 0.0 10131830
18:00+28вюв685231 0.0 10121143
21:00+22в7156429 0.0 1013553
1 марта, пн
пн100:00+19в5138489 0.0 1014668
03:00+18вюв379571 0.0 1012197
06:00+18вюв4109472 0.0 1013427
09:00+22в698069 0.0 1013671
12:00+29в555363 0.0 10121262
15:00+31юв433831 0.0 10092030
18:00+30ююв45460 0.0 10081028
21:00+23вюв5137719 0.0 1010506
2 марта, вт
вт200:00+20вюв4109135 0.0 1012382
03:00+18вюв389617 0.0 1011211
06:00+18вюв469850 0.0 1012183
09:00+22в578245 0.0 1013459
12:00+29в445422 0.0 1012940
15:00+31юв544111 0.0 10101600
18:00+30юв45490 0.0 10091252
21:00+24юв5127127 0.0 1012356
3 марта, ср
ср300:00+21вюв411940 0.0 1014428
03:00+19вюв38987 0.0 1013324
06:00+18вюв379932 0.0 1013206
09:00+23в577827 0.0 1015447
12:00+29в45517 0.0 10141027
15:00+32юв44394 0.0 10121744
18:00+31вюв34420 0.0 1010955
21:00+23юв36620 0.0 1012114